#timestamp,LO_Frequency,Hit,StdDev 
1606914015.0,286047000.7,N
1606914015.9,286047000.7,N
1606914035.8,286047001.0,N
1606914055.6,286046998.9,N
1606914075.4,286047000.9,N
1606914095.3,286046998.8,N
1606914115.1,286046999.6,N
1606914135.8,286046998.8,N
1606914155.7,286047001.2,N
1606914175.5,286047000.7,N
1606914195.3,286046999.7,N
1606914215.2,286047001.9,N
1606914235.9,286047001.6,N
1606914255.7,286047002.3,N
1606914275.6,286047000.5,N
1606914295.4,286047000.3,N
1606914315.2,286047001.0,N
1606914335.1,286046999.7,N
1606914336.0,286046999.7,N
1606914355.8,286046999.8,N
1606914375.6,286047001.8,N
1606914395.5,286047000.2,N
1606914415.3,286047000.8,N
1606914435.1,286047000.8,N
1606914455.9,286047000.6,N
1606914475.7,286047000.2,N
1606914495.5,286047000.8,N
1606914515.4,286047000.7,N
1606914535.2,286046999.3,N
1606914555.0,286046998.6,N
1606914555.9,286046998.6,N
1606914575.8,286046998.3,N
1606914595.6,286046999.6,N
1606914615.4,286046996.8,Y
1606914635.3,286046999.6,P
1606914655.1,286046998.8,P
1606914656.0,286046998.8,N
1606914675.8,286046998.3,N
1606914695.7,286046998.4,N
1606914715.5,286046998.4,N
1606914735.3,286046998.7,N
1606914755.2,286046998.4,N
1606914775.9,286046998.6,N
1606914795.7,286046998.7,N
1606914815.6,286047001.1,N
1606914835.4,286046998.5,N
1606914855.2,286046999.4,N
1606914875.1,286046998.6,N
1606914876.0,286046998.6,N
1606914895.8,286046998.9,N
1606914915.6,286046999.4,N
1606914935.5,286046999.1,N
1606914955.3,286046998.1,N
1606914975.1,286046998.6,N
1606914995.9,286046999.4,N
1606915015.7,286046998.7,N
1606915035.5,286047001.2,N
1606915055.4,286046999.4,N
1606915075.2,286046999.6,N
1606915095.0,286046999.0,N
1606915095.9,286046999.0,N
1606915115.7,286046998.1,N
1606915135.6,286047000.7,N
1606915155.4,286046998.9,N
1606915175.2,286046999.0,N
1606915195.1,286046999.2,N
1606915196.0,286046999.2,N
1606915215.8,286046999.3,N
1606915235.6,286046999.6,N
1606915255.5,286046999.4,N
1606915275.3,286046999.6,N
1606915295.1,286046997.1,Y
1606915315.9,286046998.7,P
1606915335.7,286047001.2,P
1606915355.5,286047000.7,N
1606915375.4,286046999.0,N
1606915395.2,286046998.2,N
1606915415.0,286046998.2,N
1606915415.9,286046998.2,N
1606915435.8,286047000.8,N
1606915455.6,286046998.3,N
1606915475.4,286047000.8,N
1606915495.3,286047000.2,N
1606915515.1,286047001.2,N
1606915535.8,286047002.3,N
1606915555.7,286047001.2,N
1606915575.5,286046998.8,N
1606915595.3,286046998.6,N
1606915615.2,286046999.1,N
1606915635.9,286046998.8,N
1606915655.7,286046998.3,N
1606915675.6,286046998.6,N
1606915695.4,286046999.6,N
1606915715.2,286046996.6,N
1606915735.1,286046997.3,N
1606915736.0,286046997.3,N
1606915755.8,286046997.4,N
1606915775.6,286046997.4,N
1606915795.5,286046997.9,N
1606915815.3,286046998.9,N
1606915835.1,286047001.2,N
1606915855.9,286047000.6,N
1606915875.7,286047000.5,N
1606915895.5,286047001.0,N
1606915915.4,286046998.3,N
1606915935.2,286046998.4,N
1606915955.0,286046998.2,N
1606915955.9,286046998.2,N
1606915975.8,286046998.4,N
1606915995.6,286046998.1,N
1606916015.4,286046998.6,N
1606916035.3,286046999.2,N
1606916055.1,286046998.9,N
1606916056.0,286046998.9,N
1606916075.8,286046999.9,N
1606916095.7,286047000.0,N
1606916115.5,286047001.2,N
1606916135.3,286046998.3,N
1606916155.2,286047000.4,N
1606916175.9,286047001.0,N
1606916195.7,286047001.1,N
1606916215.6,286047000.0,N
1606916235.4,286046998.5,N
1606916255.2,286046998.8,N
1606916275.0,286046999.6,N
1606916276.0,286046999.6,N
1606916295.8,286046999.3,N
1606916315.6,286046998.4,N
1606916335.5,286047000.5,N
1606916355.3,286047000.4,N
1606916375.1,286047000.0,N
1606916395.9,286047000.5,N
1606916415.7,286047000.5,N
1606916435.5,286046999.7,N
1606916455.4,286047000.6,N
1606916475.2,286046998.3,N
1606916495.0,286046998.9,N
1606916495.9,286046998.9,N
1606916515.8,286046997.3,N
1606916535.6,286046999.6,N
1606916555.4,286046999.5,N
1606916575.2,286046997.7,N
1606916595.1,286046997.8,N
1606916596.0,286046997.8,N
1606916615.8,286046997.7,N
1606916635.6,286046997.6,N
1606916655.5,286046997.2,N
1606916675.3,286046997.3,N
1606916695.1,286046998.3,N
1606916715.9,286046999.1,N
1606916735.7,286046999.6,N
1606916755.5,286046996.7,Y
1606916775.4,286047001.0,P
1606916795.2,286047000.8,N
1606916815.0,286047000.8,N
1606916815.9,286047000.8,N
1606916835.8,286046998.5,N
1606916855.6,286046998.4,N
1606916875.4,286047001.2,N
1606916895.3,286046998.1,N
1606916915.1,286046998.8,N
1606916935.8,286046999.4,N
1606916955.7,286046996.9,N
1606916975.5,286046996.8,N
1606916995.3,286046997.2,N
1606917015.2,286046997.9,N
1606917035.9,286046997.7,N
1606917055.7,286046999.0,N
1606917075.6,286046998.9,N
1606917095.4,286046999.1,N
1606917115.2,286046999.4,N
1606917135.1,286046996.5,N
1606917136.0,286046996.5,N
1606917155.8,286046999.1,N
1606917175.6,286046998.8,N
1606917195.5,286046998.8,N
1606917215.3,286047000.9,N
1606917235.1,286047000.3,N
1606917255.9,286046999.9,N
1606917275.7,286047002.6,N
1606917295.5,286046999.8,N
1606917315.4,286047002.6,N
1606917335.2,286046999.9,N
1606917355.0,286047002.8,N
1606917355.9,286047002.8,N
1606917375.8,286047002.8,N
1606917395.6,286047002.3,N
1606917415.4,286047001.6,N
1606917435.3,286047002.6,N
1606917455.1,286047004.3,N
1606917456.0,286047004.3,N
1606917475.8,286047003.3,N
1606917495.7,286047004.0,N
1606917515.5,286047003.8,N
1606917535.3,286047003.2,N
1606917555.2,286047003.6,N
1606917575.9,286047002.9,N
1606917595.7,286047005.9,N
